Location: Unspecified
(0.0000°N, 0.0000°E)
Time: 07:19:40
(UTC+00:00)

Transit 4A - Pass Details

Date: 06 June 2022
Orbit: 864 x 980 km, 66.8° (Epoch: 24 June)

Event Time Altitude Azimuth Distance (km) Brightness Sun altitude
Rises 22:14:50 0° 168° (SSE) 3,581 - -56.0°
Reaches altitude 10° 22:18:22 10° 148° (SSE) 2,659 - -56.6°
Maximum altitude 22:22:08 17° 110° (ESE) 2,233 - -57.3°
Drops below altitude 10° 22:25:56 10° 72° (ENE) 2,695 - -58.0°
Sets 22:29:31 0° 52° (NE) 3,653 - -58.6°
